Tracking 23440 objects as of 13-Jun-2021
HD Live streaming from Space Station
objects crossing your sky now

USA 313

Track USA 313 now!
10-day predictions


NORAD ID: 47295
Int'l Code: 2020-101B
Perigee: 526.3 km
Apogee: 542.5 km
Inclination: 53.0 °
Period: 95.2 minutes
Semi major axis: 6905 km
RCS: Unknown
Launch date: December 19, 2020
Source: United States (US)
Launch site: AIR FORCE EASTERN TEST RANGE (AFETR)
aabbcc
Your satellite tracking list
Your tracking list is empty




NASA's NSSDC Master Catalog

Two Line Element Set (TLE):
1 47295U 20101B   21160.93920526 0.00000000  00000-0  00000-0 0    00
2 47295  52.9994 132.9127 0011734 111.1048 248.8951 15.12922216    02
Source of the keplerian elements: McCants